Regional Weather Roundup
Issued by NWS

Home | Current Version | Previous Version | Graphics & Text | Print | Product List | Glossary On
Versions: 1 2 3 4 5 6 7 8 9 10 11 12 13 14 15 16 17 18 19 20 21 22 23 24 25 26 27 28 29 30 31 32 33 34 35 36 37 38 39 40 41 42 43 44 45 46 47 48 49 50
000
ASUS43 KBIS 240510
RWRND

NORTH DAKOTA REGIONAL WEATHER ROUNDUP
NATIONAL WEATHER SERVICE BISMARCK ND
1100 PM CST THU FEB 23 2017

NOTE: "FAIR" INDICATES FEW OR NO CLOUDS BELOW 12,000 FEET WITH NO
SIGNIFICANT WEATHER AND/OR OBSTRUCTIONS TO VISIBILITY.


NDZ001>003-009>011-017-240600-
NORTHWEST NORTH DAKOTA

CITY           SKY/WX    TMP DP  RH WIND       PRES   REMARKS
WILLISTON      FAIR      12   9  87 CALM      30.16S
MINOT          MOCLDY    20  15  81 SW7       30.13S WCI  11
MINOT AFB      CLOUDY    19  15  84 W7        30.13S WCI  10
$$

NDZ018>021-031>035-040>046-240600-
SOUTHWEST NORTH DAKOTA

CITY           SKY/WX    TMP DP  RH WIND       PRES   REMARKS
BISMARCK       MOCLDY    19  14  81 N9        30.13R WCI   8
DICKINSON      FAIR      12   8  84 N5        30.08R WCI   4
GARRISON         N/A     12   8  84 N6        30.12S WCI   3
HETTINGER ARPT CLOUDY    19  14  81 N13       30.08R WCI   6
$$

NDZ004>008-012>016-024-026-027-054-240600-
NORTHEAST NORTH DAKOTA

CITY           SKY/WX    TMP DP  RH WIND       PRES   REMARKS
GRAND FORKS    CLOUDY    20  11  68 N10       30.13R WCI   9
GRND FRKS AFB  CLOUDY    18  15  87 N8        30.13S WCI   7
DEVILS LAKE    FAIR      16  12  84 N8        30.11F WCI   5
$$

NDZ022-023-025-028>030-036>039-047>053-240600-
SOUTHEAST NORTH DAKOTA

CITY           SKY/WX    TMP DP  RH WIND       PRES   REMARKS
FARGO          CLOUDY    23  15  71 N16       30.10R WCI  10
JAMESTOWN      MOCLDY    22  16  78 N13       30.09R WCI  10
$$




USA.gov is the U.S. government's official web portal to all federal, state and local government web resources and services.